Location: Finney State Fishing Lake and Wildlife Area
(38.1834°N, 100.3310°W)
Time: 08:49:46
(UTC+00:00)

CZ-2C R/B - Pass Details

Date: 17 October 2021
Orbit: 784 x 871 km, 98.2° (Epoch: 28 November)

Event Time Altitude Azimuth Distance (km) Brightness Sun altitude
Rises 11:57:41 0° 161° (SSE) 3,344 6.1 -11.5°
Reaches altitude 10° 12:00:00 10° 160° (SSE) 2,428 5.4 -11.0°
Maximum altitude 12:05:23 77° 76° (ENE) 868 2.9 -10.0°
Drops below altitude 10° 12:10:56 10° 350° (N) 2,497 5.0 -8.9°
Sets 12:13:21 0° 349° (N) 3,447 5.7 -8.4°
